FLOCK 3P-33

Last updated on Wed Feb 14 2018 16:20:27 GMT+0000 (Coordinated Universal Time)

1 41990U 17008AU 18044.83181818 .00001059 00000-0 46801-4 0 9992 2 41990 97.4662 110.4070 0009091 72.7332 287.4899 15.23901177 54647
UTC large
Height (km)
Speed (km/s)
/
Latitude / Longitude
Inclination (degrees)
Orbital Period (minutes)
Azimuth
Elevation
Range (km)
Doppler Factor

Next 0 passes for location: London (51.5072 / 0.1276)

Sorry there are no passes over London.